{"data":{"norad_id":26107,"epoch":"2026-05-24T17:58:27.456096Z","epoch_age_seconds":97481,"freshness":"FRESH","line1":"1 26107U 00016A   26144.74892889 -.00000338  00000+0  00000+0 0  9998","line2":"2 26107   9.0789  58.4055 0004980   2.9188 195.6369  1.00274392 95682","mean_motion":1.00274392,"eccentricity":0.000498,"inclination_deg":9.0789,"raan_deg":58.4055,"arg_perigee_deg":2.9188,"mean_anomaly_deg":195.6369,"bstar":0,"rev_number":9568,"period_min":1436.0595674317,"perigee_km":35764.86646772,"apogee_km":35806.861812856,"semimajor_km":42164.001140288,"source":"CELESTRAK","updated_at":"2026-05-25T13:38:13.810191Z"}}